Powrót do katalogu

STARLINK-30150

AktywnyŁącznośćVLEO
NORAD 57621·PAYLOAD·🇺🇸 United States

Wystrzelony Aug 11, 2023 z Cape Canaveral Space Force Station

Loading…

Następne Przeloty (najbliższe 24 godziny)

TLE

ŚwieżeSource: CelesTrak SupGP

Epoka: Sep 15, 2026, 02:05 UTC

1 57621C 23119V   26258.08729167  .00030009  00000+0  10871-2 0  2588
2 57621  43.0007  91.8099 0001862 278.5692  98.6462 15.27557991    16

Śledź STARLINK-30150 w czasie rzeczywistym z AllMySat

Download on the App Store